RADUGA-1 7 [-]

Last updated on Wed Jun 28 2023 00:02:57 GMT+0000 (Coordinated Universal Time)

1 28194U 04010A 23178.19215931 .00000141 00000+0 00000+0 0 9995 2 28194 12.4039 28.9931 0002560 145.7966 205.5800 1.00201547 70511
UTC large
Height (km)
Speed (km/s)
/
Latitude / Longitude
Inclination (degrees)
Orbital Period (minutes)
Azimuth
Elevation
Range (km)
Doppler Factor

Next 0 passes for location: London (51.5072 / 0.1276)

Sorry there are no passes over London.